Showing default

QIANFAN-55, 62785

Orbit data source: Space-Track

QIANFAN-55, 62785 is a Chinese payload satellite in LEO that was launched on Thu, 23 Jan 2025 UTC via a CHANG ZHENG 6A launch vehicle from the Taiyaun Space Center, China (TSC). Payload-class satellites include a variety of spacecraft equipped with specific instruments for various scientific and technological missions. These include communications satellites like Starlink; space stations such as the ISS; scientific satellites like the Hubble; Earth observation satellites from companies like Planet Labs, Umbra, and HawkEye 360; GPS; miniature CubeSats for education and research; and military/defense satellites.

Loading next visibility...
Identifier
62785, 2025-016A
Orbit
LEO
Country
Flag of CNCN / PRC
Related business
Manufacturer
SECM
Mission
Operational Commercial Communications
Bus & Motor
QIANFAN, Unknown motor
Mass
267 kg wet, ~267 kg dry
Launch date (UTC)
2025-01-23 (1 year ago)
Launch vehicle
CHANG ZHENG 6A
Launch site
Taiyaun Space Center, China (TSC)
Object type
Payload
Rocket body
Debris
Shape & HBR
Box + 1 Pan, 1.2 m
Radar Cross Section
13.200 m², Large (>1 m²)

Expand to show TLE details & history
Last TLE update: 6 hours ago

TLE from 6 hours ago
0 QIANFAN-55
1 62785U 25016A   26037.76818001  .00000091  00000-0  12157-3 0  9990
2 62785  88.9735  97.4240 0017748 180.0107 180.1046 13.50993379 54750
Epoch: 2026-02-06T18:26Z
TLE epoch observation values (Epoch: 2026-02-06T18:26:10.752Z)
Latitude
-0.00013°
Longitude
43.97788°
Altitude
1,084.778 km
Speed
7.303 km/s
True Right ascension
06h 29m 41s
True Declination
0° 00' 00"
Sunlit
Object was in full shadow at epoch
Visualization orbit readout
Latitude
Unknown
Longitude
Unknown
Altitude
Unknown
Speed
Unknown
Apparent Right ascension
Unknown
Apparent Declination
Unknown
Sunlit
N/A
Visualization observer readout
Local Sidereal Time
02:23:12
Azimuth
Unknown
Elevation
Unknown
Doppler factor
Unknown
Orbital elements
Apogee altitude
1,078.868 km
Perigee altitude
1,052.446 km
Semi-major axis
7,443.794 km
Eccentricity
0.00177
Inclination
88.9735°
RAAN
97.424°
Arg. of periapsis
180.0107°
True anomaly
180.10423°
Mean anomaly
180.1046°
Eccentric anomaly
180.10441°
Mean motion
3.37949 °/min
Orbital period
106.52 mins
BSTAR
0.00012157
Loading maneuver chart data...
Computing Atmospheric mass density...
Loading historical data...
Loading historical data...
Loading historical data...
Loading historical data...
Loading historical data...
Loading historical data...
Loading historical data...

Documentation

Showing up to 5 results
|